Regional Weather Roundup
Issued by NWS

Home | Current Version | Previous Version | Text Only | Print | Product List | Glossary Off
Versions: 1 2 3 4 5 6 7 8 9 10 11 12 13 14 15 16 17 18 19 20 21 22 23 24 25 26 27 28 29 30 31 32 33 34 35 36 37 38 39 40 41 42 43 44 45 46 47 48 49 50

000
ASUS43 KIND 160259
RWRIN

WEATHER ROUNDUP FOR INDIANA
NATIONAL WEATHER SERVICE INDIANAPOLIS IN
1100 PM EDT TUE AUG 15 2017

NOTE: "FAIR" INDICATES FEW OR NO CLOUDS BELOW 12,000 FEET WITH NO
SIGNIFICANT WEATHER AND/OR OBSTRUCTIONS TO VISIBILITY.

* - STATION DOES NOT REPORT WEATHER SUCH AS PRECIPITATION OR FOG.

+ - STATION NOT QUALITY CONTROLLED BY THE NATIONAL WEATHER SERVICE.
    USE DATA WITH CAUTION...ESPECIALLY DEWPOINT AND RELATIVE
    HUMIDITY OBSERVATIONS.

INZ001>003-010>013-019-020-160400-
NORTHWEST INDIANA

CITY           SKY/WX    TMP DP  RH WIND       PRES   REMARKS
GARY /AIRPORT/ MOCLDY    72  64  78 NE10      29.98R
MICHIGAN CITY+ CLOUDY    64  64 100 CALM      29.99R
MONTICELLO +   PTCLDY    72  66  83 NE3       29.95R
RENSSELAER +   CLEAR     68  63  83 N3        29.97R

$$

LMZ046-743>745-160400-
SOUTHERN LAKE MICHIGAN

STATION/POSITION TIME  TEMP    WIND        PRES    WAVE
                       AIR SEA DIR/SP/G            HT
                 (UTC) (F)     (DEG/KT/KT) (MB)    (FT)
BURNS HARBOR     0201   72      50/ 11/ 14 1014.9
MICHIGAN CITY    0230   71      40/ 12/ 13   N/A
5NW MICH CITY    0250   72 74   60/ 10/ 12   N/A     3

$$

INZ004-005-014>016-021>024-160400-
NORTH CENTRAL INDIANA

CITY           SKY/WX    TMP DP  RH WIND       PRES   REMARKS
GOSHEN         CLEAR     68  63  84 CALM      29.98R
SOUTH BEND     CLEAR     68  65  90 CALM      29.99R

$$

INZ006>009-017-018-025>027-160400-
NORTHEAST INDIANA

CITY           SKY/WX    TMP DP  RH WIND       PRES   REMARKS
FORT WAYNE     CLEAR     72  64  76 N6        29.97R
KENDALLVILLE + CLEAR     67  67 100 CALM      29.98S

$$

INZ028-029-035-036-043>045-051>053-160400-
WEST CENTRAL INDIANA

CITY           SKY/WX    TMP DP  RH WIND       PRES   REMARKS
LAFAYETTE      PTCLDY    70  68  93 CALM      29.95R
TERRE HAUTE    MOCLDY    71  68  90 CALM      29.95R

$$

INZ030>032-037>040-046>048-054>057-064-065-160400-
CENTRAL INDIANA

CITY           SKY/WX    TMP DP  RH WIND       PRES   REMARKS
GREENWOOD *+   CLOUDY    70  67  88 CALM      29.97R
INDIANAPOLIS   CLOUDY    78  66  66 CALM      29.95R
-EAGLE CREEK   PTCLDY    76  69  79 CALM      29.95R
KOKOMO +       PTCLDY    69  67  93 CALM      29.97S
MT COMFORT *+  CLEAR     70  66  88 CALM      29.97R
SHELBYVILLE    CLEAR     74  68  81 S6        29.95R

$$

INZ033-034-041-042-049-050-058-059-160400-
EAST CENTRAL INDIANA

CITY           SKY/WX    TMP DP  RH WIND       PRES   REMARKS
MUNCIE         CLEAR     71  67  87 N3        29.97R
RICHMOND +     CLEAR     66  66 100 N6        29.99R

$$

INZ060-061-067>069-081>083-085>088-160400-
SOUTHWEST INDIANA

CITY           SKY/WX    TMP DP  RH WIND       PRES   REMARKS
EVANSVILLE     CLEAR     75  70  84 CALM      29.95R
HUNTINGBURG *+ PTCLDY    73  72  96 CALM      29.96R FOG

$$

INZ062-063-066-070>080-084-089>092-160400-
SOUTH CENTRAL AND SOUTHEAST INDIANA

CITY           SKY/WX    TMP DP  RH WIND       PRES   REMARKS
BLOOMINGTON    PTCLDY    68  65  90 CALM      29.96R
MADISON *+     CLEAR     70  68  94 CALM      29.99R
SEYMOUR +      CLEAR     72  72 100 CALM      29.96R

$$





USA.gov is the U.S. government's official web portal to all federal, state and local government web resources and services.